Location: PSU-Greenbush Astrophysical Observatory
(37.5140°N, 94.9880°W)
Time: 21:20:47
(UTC-06:00)

Altair - Pass Details

Date: 27 January 2020
Orbit: 1502 x 1682 km, 47.2° (Epoch: 16 February)

Event Time Altitude Azimuth Distance (km) Brightness Sun altitude
Rises 08:49:33 0° 247° (WSW) 4,854 9.8 13.3°
Reaches altitude 10° 08:52:40 10° 250° (WSW) 3,888 9.4 13.8°
Maximum altitude 09:02:41 72° 334° (NNW) 1,751 7.9 15.4°
Drops below altitude 10° 09:12:53 10° 58° (ENE) 3,945 9.9 16.9°
Sets 09:16:05 0° 61° (ENE) 4,928 10.4 17.4°
